Other Surface Observations
Issued by NWS

Home | Current Version | Previous Version | Text Only | Print | Product List | Glossary On
Versions: 1 2 3 4 5 6 7 8 9 10 11 12 13 14 15 16 17 18 19 20 21 22 23 24 25 26 27 28 29 30 31 32 33 34 35 36 37 38 39 40 41 42 43 44 45 46 47 48 49 50
000
SXUS52 KTAE 270618
OSOTAE
OSOTAE
North Florida/South Alabama/Southwest Georgia Weather Roundup
National Weather Service Tallahassee Florida
200 AM EDT SAT AUG 27 2016

Note: "fair" indicates few or no clouds below 12,000 feet with no
significant weather and/or obstructions to visibility.

!FLZ017-115-028-034-025-270700
...North Florida...

CITY           SKY/WX    TMP DP  RH WIND       PRES   REMARKS
TALLAHASSEE    CLEAR     80  71  74 E8        30.01F
APALACHICOLA   PTCLDY    85  76  74 E10G20    29.98F HX  94
PERRY          CLEAR     76  70  80 E3        30.03F
CROSS CITY     MOCLDY    75  70  83 NE5       30.01F
JACKSONVILLE   PTCLDY    70  70 100 CALM      30.02F
$$

!FLZ112-006-005-002-011-270700
...Florida Panhandle...

CITY           SKY/WX    TMP DP  RH WIND       PRES   REMARKS
MARIANNA       PTCLDY    77  73  87 NE3       30.00F
BONIFAY        FAIR      74  72  93 CALM      30.01F
PANAMA CITY NW FAIR      76  74  93 NE5       29.98F
TYNDALL AFB    CLEAR     79  71  76 NE6       29.98F
TYND DRONE APT FAIR      79  73  81 NE8       29.98F
DE FUNIAK SPR  FAIR      75  73  95 CALM      30.01F
EGLIN AFB      CLEAR     76  73  88 N3        29.99F
DESTIN         CLEAR     80  76  87 NE3       29.98F
HURLBURT       CLEAR     76  74  95 N3        29.97F
CRESTVIEW      CLEAR     71  68  90 CALM      30.01F
PENSACOLA      CLEAR     80  76  87 E3        29.98F
$$

!ALZ063-066-270700
...South Alabama...

CITY           SKY/WX    TMP DP  RH WIND       PRES   REMARKS
DOTHAN         CLEAR     77  71  82 E6        30.06F
OZARK CAIRNS   CLEAR     76  70  81 NE3       30.02F
FT RUCKER HELI CLEAR     75  69  81 NE3       30.01F
RUCKER HELI 3  NOT AVBL
RUCKER HELI 2  FAIR      79  69  71 E3        30.02F
FLORALA APT    CLEAR     73  68  84 CALM      30.03F
ANDALUSIA      CLEAR     76  71  85 CALM      30.01F
TROY           CLEAR     73  73 100 CALM      30.05S
EUFALA         FAIR      77  69  76 SE5       30.04F
MOBILE         CLEAR     75  72  90 N3        30.01R
$$

!GAZ120>161-270700
...Southwest and South Central Georgia...

CITY           SKY/WX    TMP DP  RH WIND       PRES   REMARKS
THOMASVILLE    FAIR      75  73  94 CALM      30.06S
BAINBRIDGE     CLEAR     77  72  83 CALM      30.03S
MOODY AFB      CLEAR     72  68  88 NE3       30.04F
VALDOSTA       CLEAR     74  72  93 NE3       30.04F
MOULTRIE       CLEAR     73  70  88 CALM      30.06S
BLAKELY        CLEAR     73  70  88 CALM      30.04F
ALBANY         CLEAR     75  70  84 CALM      30.06F
TIFTON         FAIR      72  69  91 CALM      30.05F
FITZGERALD       N/A     72  71  97 CALM      30.08F
CORDELE        FAIR      75  71  87 CALM      30.08S
AMERICUS       FAIR      72  66  83 CALM      30.09S
HOMERVILLE     FAIR      70  68  94 CALM      30.06F
$$

!GMZ750-755-770-775-270700
...Coastal and Buoy Obs...

STATION/POSITION TIME  TEMP    WIND        PRES    VSBY  WAVE
                       AIR SEA DIR/SP/G                  HT/PER
                 (UTC) (F)     (DEG/KT/KT) (MB)    (MI)  (FT/S)
KEATON BEACH     0600   76      60/  6/  8 1015.9F
CEDAR KEY        0600   80      60/ 11/ 13 1016.0F
C TOWER          0600   84     110/ 20/ 21 1015.4F
APALACHICOLA BUO 0550   84 86  110/ 14/ 17 1014.3F         2/ 4
PANAMA CITY BUOY 0550   86 86   90/ 16/ 17 1014.0F         3/ 5
MOBILE BUOY      0600   85 86  100/ 12/ 16 1014.4F
ORANGE BCH AL BU 0550   85 86  100/ 10/ 12 1014.9F         2/ 6
$$




USA.gov is the U.S. government's official web portal to all federal, state and local government web resources and services.